Regional Weather Roundup
Issued by NWS Green Bay, WI

Home | Current Version | Previous Version | Graphics & Text | Print | Product List | Glossary Off
Versions: 1 2 3 4 5 6 7 8 9 10 11 12 13 14 15 16 17 18 19 20 21 22 23 24 25 26 27 28 29 30 31 32 33 34 35 36 37 38 39 40 41 42 43 44 45 46 47 48 49 50

496
ASUS43 KGRB 190411
RWRGRB

NORTH-CENTRAL AND NORTHEAST WISCONSIN REGIONAL WEATHER ROUNDUP
NATIONAL WEATHER SERVICE GREEN BAY WI
1000 PM CST SAT NOV 18 2017

WIZ005-009-010>012-018-019-190500-
NORTH CENTRAL WISCONSIN

CITY           SKY/WX    TMP DP  RH WIND       PRES   REMARKS
IRONWOOD       FLURRIES N/A N/A N/A W14       29.84S
MANITOWISH WTR FLURRIES  21  19  93 NW9       29.81R
ARBOR VITAE    MOCLDY    24  20  85 NW9       29.80R
EAGLE RIVER    CLOUDY    24  21  89 NW9G17    29.77S
LAND O LAKES   CLOUDY    24  21  89 NW8G16    29.79R
RHINELANDER    CLOUDY   N/A N/A N/A NW12G21   29.80R
PHILLIPS       CLOUDY    22  15  71 NW8G17    29.84R
ANTIGO         CLOUDY    26  21  82 NW15G24   29.78R
TOMAHAWK       CLOUDY    24  17  76 NW12G18   29.83R
MERRILL        CLOUDY    26  18  72 N12G21    29.83R
$$

WIZ013-073-190500-
NORTHEAST WISCONSIN

CITY           SKY/WX    TMP DP  RH WIND       PRES   REMARKS
IRON MOUNTAIN  CLOUDY    28  22  78 NW17G25   29.73R
MARINETTE      CLOUDY    33  26  75 NW14G21   29.75R
OCONTO         CLOUDY    32  25  73 NW8       29.77R
$$

WIZ017-030-035>037-045-190500-
CENTRAL WISCONSIN

CITY           SKY/WX    TMP DP  RH WIND       PRES   REMARKS
MEDFORD        CLOUDY    24  15  69 NW12G20   29.83S
WAUSAU         CLOUDY    27  18  69 NW10      29.81R
MOSINEE        CLOUDY    27  19  74 NW18      29.83R
MARSHFIELD     CLOUDY    27  17  66 NW21      29.84R
WISC RAPIDS    CLOUDY    30  18  60 NW15G23   29.86R
STEVENS POINT  CLOUDY    28  18  65 NW14G21   29.83R
WAUPACA        CLOUDY    34  23  64 NW10G22   29.81R
SHAWANO        CLOUDY    33  26  73 NW7G20    29.79R
CLINTONVILLE   CLOUDY    32  23  69 NW9       29.80R
WAUTOMA        NOT AVBL
$$

WIZ038-039-048-051-190500-
FOX VALLEY

CITY           SKY/WX    TMP DP  RH WIND       PRES   REMARKS
NWS GREEN BAY  CLOUDY    33  27  78 NW9       29.77R
APPLETON       CLOUDY    32  23  69 NW9G18    29.77R
OSHKOSH        CLOUDY    33  25  72 NW12      29.79R
FOND DU LAC    CLOUDY    34  24  67 NW13G23   29.80R
$$

WIZ022-050-052-190500-
EAST CENTRAL WISCONSIN

CITY           SKY/WX    TMP DP  RH WIND       PRES   REMARKS
EPHRAIM        CLOUDY    32  25  75 NW18G28   29.71S
WASHINGTON ISL CLOUDY    32  24  73 N20G26    29.72R
STURGEON BAY   CLOUDY    34  25  69 NW16G25   29.74R
MANITOWOC      CLOUDY    34  26  72 NW13      29.76R
SHEBOYGAN      CLOUDY    35  28  75 NW13G25   29.76R
$$

LMZ563-521-522-541>543-190500-
LAKESHORE

STATION/POSITION TIME  TEMP    WIND        PRES    VSBY  WAVE
                       AIR SEA DIR/SP/G                  HT/PER
                 (UTC) (F)     (DEG/KT/KT) (MB)    (MI)  (FT/S)
SHEBOYGAN LKSHOR 0400   36     340/ 20/ 23 1008.2R
NORTHPORT PIER   0406   35     320/ 23     1006.4
N MID LAKE BUOY  0350   34 48  330/ 21/ 27 1006.0R         6/ 5
SISTER BAY LKSHO 0404   35     330/ 28/ 34   N/A
$$




USA.gov is the U.S. government's official web portal to all federal, state and local government web resources and services.